Location: Bieg
(49.3499°N, 10.3835°E)
Time: 13:12:23
(UTC+00:00)

Cosmos 1908 Rocket - Pass Details

Date: 23 May 2024
Orbit: 602 x 629 km, 82.5° (Epoch: 24 June)

Event Time Altitude Azimuth Distance (km) Brightness Sun altitude
Rises 00:13:21 0° 354° (N) 2,925 8.3 -18.8°
Reaches altitude 10° 00:15:40 10° 359° (N) 2,009 7.3 -18.7°
Maximum altitude 00:20:01 51° 76° (ENE) 787 4.2 -18.5°
Enters shadow 00:22:29 23° 143° (SE) 1,313 4.9 -18.4°
